Location: Dischingen
(48.6979°N, 10.3600°E)
Time: 13:48:52
(UTC+00:00)

Daily predictions for brighter satellites

Satellite Brightness Start Highest point End
(mag) Time Altitude Azimuth Time Altitude Azimuth Time Altitude Azimuth
Cosmos 2228 Rocket 3.9 17:53:58 10° NNW 17:58:31 61° W 18:03:00 10° S
ATLAS 3B R/B 4.3 17:55:21 10° W 18:01:40 34° NNW 18:08:22 10° NE
GEOS 3 Rocket 3.7 17:58:21 10° NE 18:03:45 72° SE 18:09:08 10° SSW
Cosmos 2056 Rocket 4.2 18:00:05 10° SSE 18:04:29 30° E 18:08:53 10° NE
Cosmos 1536 2.7 18:00:33 10° S 18:04:29 84° E 18:08:25 10° N
Cosmos 2219 Rocket 2.5 18:01:36 10° NNW 18:07:08 49° NE 18:12:39 10° SE
Meteor 2-9 Rocket 4.5 18:02:07 10° SSE 18:07:18 43° E 18:12:24 10° NNE
COSMOS 2428 3.5 18:02:14 10° NNW 18:07:26 34° NE 18:12:37 10° ESE
MINOTAUR 4 R/B 4.5 18:05:11 10° NNE 18:08:23 36° E 18:11:34 10° SSE
Cosmos 1833 4.4 18:03:17 10° S 18:08:39 51° ESE 18:14:05 10° NE
CZ-4 R/B 1.3 18:05:26 10° SSE 18:09:11 60° ENE 18:13:00 10° N
Cosmos 1459 Rocket 4.3 18:04:08 10° N 18:09:50 42° ENE 18:15:32 10° SE
Cosmos 1707 3.3 18:06:40 10° N 18:10:13 35° ENE 18:13:43 10° SE
Feng Yun 1-1 Rocket 4.4 18:05:14 10° SE 18:10:35 57° ENE 18:16:08 10° N
Cosmos 1666 Rocket 3.6 18:07:39 10° S 18:12:03 89° W 18:16:27 10° N
Cosmos 1933 Rocket 4.4 18:09:10 10° SSE 18:12:51 28° E 18:16:33 10° NNE
USA 307 2.7 18:10:27 10° WNW 18:14:17 82° SSW 18:18:06 10° ESE
USA 305 2.6 18:10:38 10° WNW 18:14:27 86° SSW 18:18:16 10° ESE
CENTAUR R/B 3.5 18:09:11 10° NW 18:16:56 54° NE 18:25:32 10° ESE
Cosmos 1624 Rocket 4.5 18:13:25 10° S 18:18:18 39° ESE 18:23:15 10° NE
USA 281 3.4 18:13:39 10° NNE 18:20:15 84° WNW 18:26:49 10° SSW
Resurs 01 Rocket 3.1 18:17:19 11° ESE 18:20:18 19° ENE 18:23:28 10° NNE
Okean 1-7 3.3 18:17:00 10° N 18:21:14 46° ENE 18:25:26 10° SSE
Cosmos 1862 Rocket 3.9 18:17:17 10° NNW 18:21:44 74° W 18:26:11 10° S
Cosmos 1802 Rocket 4.4 18:17:03 10° N 18:22:57 43° ENE 18:28:53 10° SE
SL-16 R/B 4.0 18:19:32 10° NW 18:24:34 33° WSW 18:29:35 10° SSW
Meteor 1-23 Rocket 4.2 18:20:58 10° NNW 18:26:33 89° ENE 18:32:06 10° S
Cosmos 1420 Rocket 4.3 18:22:16 10° S 18:27:11 43° ESE 18:32:07 10° NE
Okean 3 3.5 18:26:47 10° N 18:30:56 58° ENE 18:35:05 10° SSE
Cosmos 1633 Rocket 3.5 18:28:40 10° SSW 18:33:01 67° WNW 18:37:26 10° N
Iridium 4 Rocket 3.9 18:31:08 10° NNE 18:34:49 28° ENE 18:37:44 14° SE
Cosmos 1674 2.7 18:31:36 10° N 18:35:15 54° ENE 18:38:54 10° SSE
Cosmos 2360 Rocket 3.0 18:31:47 10° NW 18:37:18 54° WSW 18:42:46 10° S
Cosmos 2098 Rocket 4.2 18:34:01 10° SSE 18:38:40 38° E 18:44:16 10° NNE
Cosmos 1437 Rocket 2.8 18:34:46 10° S 18:38:50 88° WNW 18:42:55 10° NNE
Cosmos 676 Rocket 4.0 18:38:17 10° NNW 18:43:30 70° ENE 18:48:43 10° SSE
Cosmos 2016 Rocket 4.1 18:38:42 10° N 18:44:38 50° ENE 18:50:33 10° SSE
SL-16 R/B 4.2 18:42:33 10° N 18:45:37 14° NNE 18:48:41 10° ENE
BREEZE-M DEB (TANK) 4.0 18:42:06 10° WSW 18:45:47 88° SSE 18:58:53 10° E
USA 308 3.2 18:42:12 10° WNW 18:45:52 50° SW 18:48:34 17° SE
Resurs 1-3 3.6 18:42:01 10° SSE 18:46:20 64° ENE 18:50:40 10° N
Cosmos 1703 Rocket 3.5 18:41:56 10° N 18:46:24 70° E 18:50:49 10° SSE
Cosmos 2123 Rocket 4.3 18:40:32 10° SSE 18:46:28 46° E 18:52:27 10° NNE
Okean-O 2.9 18:43:43 12° SE 18:47:38 49° ENE 18:51:55 10° N
Cosmos 2173 Rocket 4.0 18:44:25 10° N 18:50:51 84° E 18:57:14 10° S
BREEZE M DEB (TANK) 1.6 18:49:14 10° WSW 18:51:57 82° S 18:52:43 36° E
Cosmos 1190 Rocket 4.4 18:47:34 10° NNW 18:52:43 64° WSW 18:57:51 10° S
Cosmos 1000 Rocket 4.4 18:49:33 10° S 18:55:41 78° E 19:01:51 10° NNE
Cosmos 2100 Rocket 4.1 18:49:57 10° N 18:56:21 86° W 19:02:42 10° S
Landsat 5 4.1 18:53:03 10° NE 18:56:27 29° E 18:57:16 27° ESE
USA 215 4.0 18:51:28 10° ENE 18:57:44 49° NNW 19:03:58 10° W
EXPRESS MD2 3.7 18:56:47 10° W 18:58:38 23° SSW 18:59:08 21° S
Cosmos 1470 Rocket 4.2 18:54:28 10° SSW 18:58:52 60° WNW 19:03:20 10° N
Cosmos 1733 3.6 18:58:05 19° SSE 19:00:22 39° E 19:03:55 10° NNE
Okean O Rocket 2.6 18:57:04 10° S 19:01:21 48° W 19:05:38 10° NNW
Cosmos 2242 Rocket 3.7 18:56:56 10° N 19:01:29 59° ENE 19:04:47 18° SSE
Cosmos 1954 Rocket 4.3 19:02:08 10° NNW 19:07:21 69° WSW 19:12:34 10° SSE
Cosmos 1726 2.8 19:08:38 31° ENE 19:08:38 31° ENE 19:11:12 10° NNE
Landsat 7 4.1 19:06:15 10° S 19:10:56 69° WSW 19:15:40 10° NNW
Meteor 1-21 4.3 19:05:32 10° NNW 19:11:10 79° W 19:16:47 10° S
NOSS 0 Rocket 4.0 19:06:08 10° NNW 19:12:18 62° NE 19:15:43 27° SE
CARTOSAT-1 4.2 19:12:34 33° E 19:13:22 36° ENE 19:17:18 10° N
ADEOS Rocket 4.4 19:11:23 20° ENE 19:13:26 23° NE 19:18:31 10° N
Helios 1B 4.4 19:10:49 10° NNE 19:15:10 74° ESE 19:19:29 10° S
Exosat Rocket 3.8 19:10:09 10° SSW 19:15:16 84° WNW 19:21:48 10° NNE
Terra 3.6 19:18:08 16° NE 19:18:08 16° NE 19:20:46 10° NNE
SPOT 5 4.1 19:18:19 22° ENE 19:18:26 22° ENE 19:22:02 10° N
SL-27 R/B 2.4 19:15:30 10° SSW 19:18:48 73° WNW 19:22:06 10° NNE
ISS -3.5 19:15:57 10° W 19:19:17 65° NNW 19:20:08 44° NE
SL-8 R/B 4.4 19:15:01 10° W 19:19:33 43° SSW 19:21:31 28° SSE
CSL-04 Rocket 4.1 19:17:43 10° S 19:23:14 66° WSW 19:28:47 10° NNW
Ariane Rocket 3.7 19:22:38 31° E 19:23:27 33° ENE 19:27:59 10° N
Cosmos 2237 Rocket 2.6 19:18:28 10° NNW 19:23:56 47° NE 19:25:47 35° ESE
Cosmos 1975 3.1 19:20:13 10° SSW 19:24:08 68° W 19:28:06 10° N
ERS-1 Rocket 4.3 19:26:33 23° ENE 19:26:40 23° ENE 19:30:33 10° N
Cosmos 1626 4.1 19:24:55 10° NNW 19:27:59 27° W 19:31:03 10° SSW
USA 186 3.8 19:26:32 10° SSW 19:29:13 27° W 19:31:56 10° NW
Cosmos 1818 4.0 19:23:54 10° NW 19:29:15 58° WSW 19:32:28 24° SSE
Cosmos 2061 Rocket 4.0 19:23:05 10° N 19:29:34 85° E 19:34:58 15° S
Meteor 2-10 3.8 19:26:01 10° S 19:31:01 74° E 19:36:06 10° NNE
Cosmos 2322 4.4 19:29:34 10° NW 19:35:04 52° WSW 19:39:23 16° S
Cosmos 2333 Rocket 4.2 19:35:35 10° NW 19:40:17 26° WSW 19:44:59 10° SSW
Cosmos 2233 Rocket 3.8 19:34:33 10° N 19:40:43 80° E 19:44:06 29° SSE
CZ-4C R/B 3.9 19:35:59 10° NW 19:41:43 31° NNE 19:45:25 21° ENE
MOS 1 4.2 19:39:27 33° SSE 19:42:08 81° ENE 19:47:53 10° NNW
Cosmos 1805 3.2 19:43:24 52° SSW 19:44:15 80° W 19:48:06 10° N
CZ-4 R/B 4.4 19:42:38 10° WSW 19:44:27 13° W 19:46:16 10° WNW
Cosmos 1980 3.7 19:38:58 10° NNW 19:44:39 68° ENE 19:46:05 49° ESE
SL-14 R/B 3.3 19:42:55 10° NNW 19:46:47 72° W 19:47:11 64° SW
NOSS 3-2 (A) 4.2 19:41:07 10° NW 19:48:32 73° SW 19:53:10 30° SSE
MetOp-A 4.0 19:48:16 50° SSE 19:49:42 77° ENE 19:54:59 10° NNW
Cosmos 2219 Rocket 3.8 19:45:55 10° NW 19:50:53 31° WSW 19:55:49 10° SSW
COSMOS 2428 3.4 19:46:23 10° NW 19:51:54 50° WSW 19:55:09 24° S
MetOp-B 4.1 19:51:49 56° SE 19:52:48 68° ENE 19:58:09 10° N
BREEZE-M DEB (TANK) 2.8 19:47:56 10° W 19:52:45 70° WNW 19:52:45 70° WNW
SPOT 1/Viking Rocket 4.0 19:50:09 22° S 19:53:23 58° W 19:58:32 10° NNW
PKM 4.1 19:50:37 10° WNW 19:54:06 57° N 19:54:06 57° N
Resurs 01 Rocket 2.1 19:54:51 36° SSW 19:56:24 56° W 20:00:46 10° NNW
NOSS 3-2 (C) 4.0 19:49:35 10° NW 19:56:59 83° NE 20:00:13 42° SE
SJ 16-02 3.6 19:54:41 10° NNE 19:56:03 13° NNE 19:56:03 13° NNE
Okean 2 4.4 19:57:57 10° NNW 20:01:49 43° W 20:02:56 34° SW
Cosmos 1850 Rocket 4.2 19:56:46 10° NNW 20:02:03 68° WSW 20:03:29 47° S
Cosmos 2297 Rocket 3.1 20:08:56 33° NE 20:08:56 33° NE 20:12:04 10° NE
H-2A R/B 2.9 20:08:14 59° NNE 20:08:14 59° NNE 20:11:57 10° N
CENTAUR R/B 3.6 19:59:58 10° NW 20:08:02 59° WSW 20:12:44 30° S
USA 238 DEB 3.8 20:02:55 10° NW 20:10:13 81° NE 20:12:16 53° SE
USA 238 3.8 20:03:01 10° NW 20:10:19 81° NE 20:12:21 53° SE
Cosmos 1110 Rocket 3.8 20:12:50 85° E 20:12:50 85° E 20:18:01 10° NNE
BREEZE-M DEB (TANK) 3.0 20:15:19 10° WNW 20:21:43 86° NNE 20:21:44 86° NNE
Cosmos 2227 Rocket 4.2 20:26:17 15° NE 20:26:17 15° NE 20:27:15 10° NE
Cosmos 1452 Rocket 3.9 20:18:56 10° SW 20:24:08 61° WNW 20:29:24 10° NNE
SL-16 R/B 2.7 20:25:35 10° NNW 20:30:33 49° NNE 20:30:33 49° NNE
Cosmos 1331 Rocket 4.3 20:33:34 61° N 20:33:34 61° N 20:38:00 10° NNE
Cosmos 1464 Rocket 3.9 20:28:59 10° N 20:35:08 72° ENE 20:35:08 72° ENE
USA 215 4.1 20:37:36 32° NE 20:40:04 44° N 20:46:12 10° WNW
Cosmos 1891 Rocket 4.4 20:40:50 10° NNW 20:46:57 76° W 20:47:03 75° WSW
Terra 3.1 20:56:53 37° NNW 20:56:53 37° NNW 20:59:47 10° NNW
SPOT 5 4.1 20:57:31 38° NW 20:57:31 38° NW 21:00:45 10° NNW
ISS -0.3 20:53:04 10° WNW 20:53:05 10° WNW 20:53:05 10° WNW
ADEOS Rocket 3.1 20:58:19 82° NW 20:58:19 82° NW 21:04:55 10° NNW
Cosmos 968 Rocket 4.4 20:53:11 10° NNW 20:57:12 45° WNW 20:57:12 45° WNW
Ariane Rocket 4.2 21:02:47 37° W 21:02:47 37° W 21:07:05 10° NNW
SPOT 3 Rocket 4.5 21:05:37 45° WNW 21:05:37 45° WNW 21:09:48 10° NNW
ERS-1 Rocket 4.1 21:06:30 42° NW 21:06:30 42° NW 21:10:03 10° NNW
Cosmos 2237 Rocket 3.5 21:02:51 10° NW 21:07:37 33° W 21:07:37 33° W
Meteor 1-24 Rocket 4.4 21:10:04 10° NNW 21:14:52 54° NW 21:14:52 54° NW
ATLAS CENTAUR R/B 4.0 21:04:50 10° WSW 21:18:54 69° NNW 21:22:21 35° NE
CZ-4C R/B 3.0 21:24:18 10° NW 21:30:34 69° N 21:30:34 69° N
SJ 16-02 4.0 21:31:49 10° NNW 21:32:57 18° NNW 21:32:57 18° NNW
ATLAS 3B R/B 3.9 21:40:44 10° NW 21:47:37 37° NNE 21:48:14 37° NE
Cosmos 2297 Rocket 3.8 21:50:34 30° NW 21:50:55 30° NW 21:55:53 10° NNE
Cosmos 2227 Rocket 4.0 22:08:02 28° NNW 22:08:02 28° NNW 22:11:15 10° NNE
SL-16 R/B 4.3 22:10:08 10° NW 22:12:26 21° WNW 22:12:26 21° WNW
USA 215 4.2 22:24:56 42° NW 22:24:56 42° NW 22:29:06 10° NW
ATLAS 2AS CENTAUR R/B 4.5 22:53:28 24° NE 22:53:28 24° NE 22:56:06 10° NE
Cosmos 2263 Rocket 4.4 23:04:25 19° N 23:04:25 19° N 23:06:10 10° NNE
ATLAS 3B R/B 4.1 23:31:34 10° NW 23:35:28 34° NW 23:35:28 34° NW
Cosmos 2082 Rocket 4.4 23:43:01 10° N 23:46:10 20° NNE 23:46:10 20° NNE
